Tracking 19792 objects as of 17-Jul-2019
HD Live streaming from Space Station
objects crossing your sky now

ORBCOMM FM 103

Track ORBCOMM FM 103 now!
10-day predictions
ORBCOMM FM 103 is classified as:


NORAD ID: 40091
Int'l Code: 2014-040F
Perigee: 716.5 km
Apogee: 718.5 km
Inclination: 47.0 °
Period: 99.0 minutes
Semi major axis: 7088 km
RCS: Unknown
Launch date: July 14, 2014
Source: United States (US)
Launch site: AIR FORCE EASTERN TEST RANGE (AFETR)
aabbcc
Your satellite tracking list
Your tracking list is empty




NASA's NSSDC Master Catalog

Two Line Element Set (TLE):
1 40091U 14040F   19197.19521242 -.00000126  00000-0  91314-5 0  9999
2 40091  47.0067 110.7722 0001422 134.7732 225.3268 14.54704816266042
Source of the keplerian elements: AFSPC